Orbital Elements at Epoch 2459200.5 (2020-Dec-17.0) TDB
Reference: JPL 37 (heliocentric ecliptic J2000)
Element | Value | Uncertainty (1-sigma) | Units |
e | .2236422107112074 | 2.7151e-08 | |
a | 2.38880623682611 | 6.7891e-09 | au |
q | 1.854568329061599 | 6.723e-08 | au |
i | 4.24571211054983 | 2.8139e-06 | deg |
node | 142.6802417993912 | 4.5434e-05 | deg |
peri | 187.0138806378135 | 4.5992e-05 | deg |
M | 93.94183896925435 | 8.1485e-06 | deg |
tp | 2458848.594244396312 (2019-Dec-31.09424440) | 2.996e-05 | TDB |
period | 1348.558569933786 3.69 | 5.749e-06 1.574e-08 | d yr |
n | .2669516979286083 | 1.138e-09 | deg/d |
Q | 2.923044144590622 | 8.3075e-09 | au |
|
| | Orbit Determination Parameters
Additional Information
|